Location: Izdebno
(52.6670°N, 16.2170°E)
Time: 09:38:15
(UTC+01:00)

Explorer 7 - Visible Passes

Search period start: 26 February 2024 00:00
Search period end: 07 March 2024 00:00
Orbit: 470 x 632 km, 50.3° (Epoch: 25 February)

Date Brightness Start Highest point End Pass type
(mag) Time Alt. Az. Time Alt. Az. Time Alt. Az.
02 Mar 9.5 05:13:02 10° SSE 05:13:50 11° SE 05:14:37 10° SE visible
03 Mar 9.2 05:06:27 10° S 05:08:21 14° SE 05:10:15 10° ESE visible
04 Mar 9.0 05:00:25 10° S 05:02:52 17° SE 05:05:19 10° ESE visible
05 Mar 8.6 04:54:44 11° SSW 04:57:23 21° SSE 05:00:13 10° E visible
06 Mar 8.3 04:49:45 15° SSW 04:51:54 25° SSE 04:54:59 10° E visible
